Location: Ottawa
(45.4167°N, 75.7000°W)
Time: 08:48:38
(UTC-04:00)

ISS - Pass Details

Date: 12 October 2017
Orbit: 401 x 408 km, 51.6° (Epoch: 19 October)

Event Time Altitude Azimuth Distance (km) Brightness Sun altitude
Rises 19:33:14 0° 298° (WNW) 2,326 1.3 -13.2°
Reaches altitude 10° 19:35:19 10° 297° (WNW) 1,465 0.1 -13.6°
Maximum altitude 19:38:36 76° 211° (SSW) 422 -3.8 -14.2°
Enters shadow 19:40:20 25° 129° (SE) 857 -2.7 -14.5°
